User: anonymous   Login
Location: Unspecified
(0.0000°N, 0.0000°E)
Time: 06:51:34
(UTC+00:00)
Language:

STARLINK-5679 - Orbit

View from above orbital plane
View from above orbital plane
View from above satellite
View from above satellite

Ground track
Ground track

The orbit is defined by the following mean orbital elements,

1 55467U          26145.57452199 +.00000000 +00000-0 +10103-4 0 00009
2 55467  43.0025 254.2504 0001722 272.7248  87.3406 15.27572293    00
Epoch (UTC): 25 May 2026 13:47:18
Eccentricity: 0.0001722
inclination: 43.0025°
perigee height: 482 km
apogee height: 484 km
right ascension of ascending node: 254.2504°
argument of perigee: 272.7248°
revolutions per day: 15.27572293
mean anomaly at epoch: 87.3406°

The dashed part of the orbit path shows where the satellite is in the earth's shadow,  

DLR